Location: ???????
(55.4362°N, 38.1183°E)
Time: 06:19:33
(UTC+00:00)

Nauka - Pass Details

Date: 27 September 2021
Orbit: 417 x 423 km, 51.6° (Epoch: 23 October)

Event Time Altitude Azimuth Distance (km) Brightness Sun altitude
Rises 18:14:02 0° 274° (W) 2,368 ? -24.9°
Reaches altitude 10° 18:16:28 10° 257° (WSW) 1,503 ? -25.2°
Enters shadow 18:17:17 14° 247° (WSW) 1,270 ? -25.3°
